Weather in Gelendgik

Russia / Krasnodar Krai     44°33′40″N   38°04′36″E
temp.,
°C
wind,
m/s
gust,
m/s
humid.,
%
clouds,
%
prec.,
mm/h
press.,
hPa
HPBL,
m
27 october, wed
wed2700:00+9ne44660 0.0 1028287
03:00+8ne32640 0.0 1027276
06:00+9nne22630 0.0 1026241
09:00+10nne21580 0.0 1026251
12:00+11wnw22550 0.0 1026360
15:00+12wnw33570 0.0 1024378
18:00+13nw33560 0.0 1023511
21:00+12n32610 0.0 1024321
28 october, thu
thu2800:00+11nw33600 0.0 1024482
03:00+11nnw22610 0.0 1024482
06:00+11nnw226368 0.0 1024422
09:00+11nnw226169 0.0 1025427
12:00+12w33594 0.0 1025528
15:00+12w22540 0.0 1024658
18:00+12n11530 0.0 1024615
21:00+11ne4361100 0.0 1024346
29 october, fri
fri2900:00+10nne325998 0.0 1024318
03:00+10nne336032 0.0 1024303
06:00+10ne33560 0.0 1024257
09:00+11ne33475 0.0 1025252
12:00+13nne23375 0.0 1024580
15:00+14nne44415 0.0 1024891
18:00+12ne465018 0.0 1025603
21:00+12ne5105214 0.0 1025506
30 october, sat
sat3000:00+11ne610571 0.0 1025386
03:00+11ne610600 0.0 1025330
06:00+10ne69630 0.0 1026262
09:00+11ene68605 0.0 1026306
12:00+14ne464912 0.0 1026603
15:00+14ne565137 0.0 1025780
18:00+14ne69525 0.0 1025500
21:00+13ne67540 0.0 1024256
31 october, sun
sun3100:00+12ne56600 0.0 1024166
03:00+12ne55610 0.0 1023158
06:00+12ne556165 0.0 1022149
09:00+13nne566031 0.0 1022162
12:00+15nne56538 0.0 1021260
15:00+16nne445199 0.0 1020324
18:00+15ne4461100 0.0 1020196
21:00+14ne336488 0.0 1020134